FW4251 Weather Reports


Display with metric or nautical units.
time (UTC)temp
F
wind
direction
speed
MPH
gust
MPH
rain 1hr
in
rain 24hr
in
rain mn
in
humidity
%
barometer
mb
20260510141516 62 222 4.0 10.0 0.00 0.00 0.00 84 1011.9
20260510141016 61 165 5.0 10.0 0.00 0.00 0.00 84 1011.9
20260510140514 61 178 5.0 9.0 0.00 0.00 0.00 84 1012.0
20260510140013 60 238 3.0 8.0 0.00 0.00 0.00 85 1011.9
20260510135512 60 232 3.0 8.0 0.00 0.00 0.00 88 1012.0
20260510135012 59 162 5.0 8.0 0.00 0.00 0.00 87 1011.9
20260510134511 59 148 2.0 9.0 0.00 0.00 0.00 88 1012.0
20260510134011 59 116 3.0 7.0 0.00 0.00 0.00 88 1011.9
20260510133507 59 135 2.0 9.0 0.00 0.00 0.00 89 1012.0
20260510133006 58 179 3.0 10.0 0.00 0.00 0.00 91 1012.0
20260510132506 58 138 3.0 7.0 0.00 0.00 0.00 89 1012.0
20260510132005 57 165 2.0 7.0 0.00 0.00 0.00 91 1012.1
20260510131504 57 169 3.0 7.0 0.00 0.00 0.00 92 1012.1
20260510131002 56 200 2.0 10.0 0.00 0.00 0.00 93 1012.2
20260510130502 56 180 3.0 10.0 0.00 0.00 0.00 93 1012.2
20260510130001 55 230 2.0 8.0 0.00 0.00 0.00 94 1012.2
20260510125500 55 169 2.0 7.0 0.00 0.00 0.00 94 1012.2
20260510125103 55 182 1.0 3.0 0.00 0.00 0.00 95 1012.2
20260510124603 55 182 1.0 5.0 0.00 0.00 0.00 95 1012.2
20260510124057 54 164 2.0 6.0 0.00 0.00 0.00 96 1012.1
20260510123557 54 180 4.0 6.0 0.00 0.00 0.00 95 1012.1
20260510123057 54 198 2.0 6.0 0.00 0.00 0.00 96 1012.0
20260510122555 54 161 1.0 5.0 0.00 0.00 0.00 96 1012.0
20260510122054 53 161 3.0 7.0 0.00 0.00 0.00 96 1011.9
20260510121556 53 140 2.0 7.0 0.00 0.00 0.00 96 1011.8
20260510121053 52 188 1.0 6.0 0.00 0.00 0.00 96 1011.8
20260510120551 52 360 4.0 6.0 0.00 0.00 0.00 96 1011.7
20260510120051 51 175 4.0 7.0 0.00 0.00 0.00 96 1011.8
20260510115550 51 186 1.0 3.0 0.00 0.00 0.00 96 1011.8
20260510115051 51 186 1.0 3.0 0.00 0.00 0.00 96 1011.8
20260510114550 51 187 0.0 3.0 0.00 0.00 0.00 96 1011.7
20260510114048 51 187 0.0 3.0 0.00 0.00 0.00 96 1011.7
20260510113547 51 188 1.0 3.0 0.00 0.00 0.00 96 1011.7
20260510113048 51 188 0.0 3.0 0.00 0.00 0.00 96 1011.7
20260510112548 50 360 0.0 2.0 0.00 0.00 0.00 96 1011.7
20260510112046 50 360 0.0 2.0 0.00 0.00 0.00 96 1011.6
20260510111548 50 360 0.0 3.0 0.00 0.00 0.00 96 1011.6
20260510111046 50 360 1.0 3.0 0.00 0.00 0.00 96 1011.5
20260510110546 50 360 0.0 3.0 0.00 0.00 0.00 96 1011.5
20260510110047 50 360 0.0 4.0 0.00 0.00 0.00 96 1011.7
20260510105548 50 360 1.0 4.0 0.00 0.00 0.00 96 1011.7
20260510105049 50 360 1.0 5.0 0.00 0.00 0.00 96 1011.6
20260510104550 50 360 2.0 5.0 0.00 0.00 0.00 96 1011.4
20260510104046 50 360 0.0 3.0 0.00 0.00 0.00 96 1011.4
20260510103545 50 360 1.0 4.0 0.00 0.00 0.00 96 1011.4
20260510103044 50 360 2.0 5.0 0.00 0.00 0.00 96 1011.3
20260510102545 50 360 2.0 5.0 0.00 0.00 0.00 96 1011.3
20260510102044 50 360 1.0 5.0 0.00 0.00 0.00 96 1011.2
20260510101544 50 360 2.0 6.0 0.00 0.00 0.00 96 1011.3
20260510101043 50 360 3.0 9.0 0.00 0.00 0.00 96 1011.4
20260510100543 50 360 3.0 9.0 0.00 0.00 0.00 96 1011.1
20260510095542 50 360 3.0 9.0 0.00 0.00 0.00 96 1011.0
20260510095045 50 360 2.0 10.0 0.00 0.00 0.00 96 1011.0
20260510094555 50 360 3.0 10.0 0.00 0.00 0.00 96 1011.0
20260510094041 50 360 2.0 9.0 0.00 0.00 0.00 96 1011.0
20260510093541 50 360 4.0 9.0 0.00 0.00 0.00 96 1010.9
20260510093041 50 360 2.0 8.0 0.00 0.00 0.00 96 1010.7
20260510092541 50 360 3.0 6.0 0.00 0.00 0.00 96 1010.7
20260510092045 50 360 2.0 6.0 0.00 0.00 0.00 96 1010.9
20260510091542 50 360 3.0 6.0 0.00 0.00 0.00 96 1010.8
20260510091041 50 360 3.0 6.0 0.00 0.00 0.00 96 1010.7
20260510090541 50 360 3.0 12.0 0.00 0.00 0.00 96 1010.5
20260510090047 50 360 4.0 12.0 0.00 0.00 0.00 96 1010.5
20260510085542 50 360 3.0 10.0 0.00 0.00 0.00 96 1010.6
20260510085040 50 360 2.0 9.0 0.00 0.00 0.00 96 1010.4
20260510084602 50 360 3.0 9.0 0.00 0.00 0.00 96 1010.5
20260510084041 50 360 3.0 9.0 0.00 0.00 0.00 96 1010.2
20260510083539 50 360 3.0 9.0 0.00 0.00 0.00 96 1010.4
20260510083039 50 360 3.0 9.0 0.00 0.00 0.00 96 1010.2
20260510082537 50 360 3.0 9.0 0.00 0.00 0.00 96 1010.5
20260510082037 50 360 3.0 9.0 0.00 0.00 0.00 96 1010.7
20260510081548 50 360 3.0 9.0 0.00 0.00 0.00 96 1010.7
20260510081037 50 360 4.0 11.0 0.00 0.00 0.00 96 1010.6
20260510080536 50 360 3.0 11.0 0.00 0.00 0.00 96 1010.5
20260510080035 50 360 2.0 6.0 0.00 0.00 0.00 96 1010.6
20260510075535 50 360 2.0 5.0 0.00 0.00 0.00 96 1010.7
20260510075035 50 360 2.0 5.0 0.00 0.00 0.00 96 1010.8
20260510074535 50 360 2.0 5.0 0.00 0.00 0.00 96 1010.9
20260510074035 50 360 0.0 3.0 0.00 0.00 0.00 96 1010.9
20260510073533 50 360 1.0 4.0 0.00 0.00 0.00 96 1010.9
20260510073033 50 360 1.0 5.0 0.00 0.00 0.00 96 1011.1
20260510072533 50 360 1.0 5.0 0.00 0.00 0.00 96 1010.9
20260510072036 50 360 2.0 8.0 0.00 0.00 0.00 96 1011.1
20260510071539 50 360 2.0 8.0 0.00 0.00 0.00 96 1011.0
20260510071033 50 360 2.0 8.0 0.00 0.00 0.00 96 1011.0
20260510070533 50 360 3.0 8.0 0.00 0.00 0.00 96 1011.1
20260510070038 50 360 2.0 6.0 0.00 0.00 0.00 96 1011.3
20260510065532 51 360 3.0 6.0 0.00 0.00 0.00 96 1011.2
20260510065032 51 360 1.0 6.0 0.00 0.00 0.00 96 1011.2
20260510064532 51 360 2.0 9.0 0.00 0.00 0.00 96 1011.3
20260510064030 51 360 2.0 9.0 0.00 0.00 0.00 96 1011.3
20260510063530 51 360 2.0 10.0 0.00 0.00 0.00 96 1011.3
20260510063034 51 360 3.0 11.0 0.00 0.00 0.00 96 1011.2
20260510062530 51 360 4.0 11.0 0.00 0.00 0.00 96 1011.1
20260510062032 51 360 3.0 8.0 0.00 0.00 0.00 96 1010.8
20260510061529 50 360 3.0 8.0 0.00 0.00 0.00 96 1010.8
20260510061033 50 360 2.0 8.0 0.00 0.00 0.00 96 1010.8
20260510060528 50 360 3.0 9.0 0.00 0.00 0.00 96 1010.9
20260510060025 50 360 4.0 9.0 0.00 0.00 0.00 96 1010.9
20260510055525 50 360 2.0 6.0 0.00 0.00 0.00 96 1010.9
20260510055025 50 360 2.0 6.0 0.00 0.00 0.00 96 1010.9
20260510054525 50 360 3.0 8.0 0.00 0.00 0.00 96 1010.8
20260510054023 50 360 3.0 8.0 0.00 0.00 0.00 96 1011.0
20260510053523 50 360 2.0 6.0 0.00 0.00 0.00 96 1010.8
20260510053026 50 360 3.0 8.0 0.00 0.00 0.00 96 1010.8
20260510052523 50 360 3.0 8.0 0.00 0.00 0.00 96 1010.9
20260510052023 50 360 2.0 6.0 0.00 0.00 0.00 96 1011.0
20260510051522 50 360 3.0 6.0 0.00 0.00 0.00 95 1011.0
20260510051023 50 360 1.0 4.0 0.00 0.00 0.00 95 1011.0
20260510050520 50 360 2.0 4.0 0.00 0.00 0.00 95 1010.9
20260510050020 50 360 2.0 4.0 0.00 0.00 0.00 96 1010.9
20260510045521 50 360 1.0 4.0 0.00 0.00 0.00 96 1010.7
20260510045020 50 360 1.0 4.0 0.00 0.00 0.00 96 1010.8
20260510044529 50 360 1.0 4.0 0.00 0.00 0.00 96 1010.9
20260510044017 50 360 1.0 4.0 0.00 0.00 0.00 96 1010.9
20260510043518 50 360 1.0 4.0 0.00 0.00 0.00 96 1010.8
20260510043017 50 360 1.0 4.0 0.00 0.00 0.00 96 1010.8
20260510042515 49 360 2.0 4.0 0.00 0.00 0.00 95 1011.0
20260510042015 49 360 1.0 3.0 0.00 0.00 0.00 95 1010.9
20260510041514 49 360 0.0 0.0 0.00 0.00 0.00 95 1010.7
20260510041013 49 360 0.0 0.0 0.00 0.00 0.00 95 1010.8
20260510040513 49 360 0.0 1.0 0.00 0.00 0.00 95 1010.7
20260510040013 49 360 0.0 2.0 0.00 0.00 0.00 95 1010.7
20260510035512 49 360 0.0 2.0 0.00 0.00 0.00 95 1010.7
20260510035012 50 219 0.0 3.0 0.00 0.00 0.00 95 1010.6
20260510034512 50 360 0.0 3.0 0.00 0.00 0.00 95 1010.7
20260510034012 50 360 1.0 4.0 0.00 0.00 0.00 95 1010.7
20260510033511 50 360 1.0 4.0 0.00 0.00 0.00 95 1010.7
20260510033011 50 360 0.0 4.0 0.00 0.00 0.00 95 1010.7
20260510032511 51 360 1.0 5.0 0.00 0.00 0.00 95 1010.7
20260510032011 51 360 1.0 5.0 0.00 0.00 0.00 95 1010.8
20260510031512 51 360 0.0 6.0 0.00 0.00 0.00 95 1010.8
20260510031013 51 360 0.0 6.0 0.00 0.00 0.00 95 1010.9
20260510030510 51 360 1.0 4.0 0.00 0.00 0.00 95 1011.0
20260510030010 50 360 1.0 2.0 0.00 0.00 0.00 95 1011.0
20260510025510 51 360 0.0 2.0 0.00 0.00 0.00 95 1010.9
20260510025010 51 360 0.0 3.0 0.00 0.00 0.00 95 1010.9
20260510024510 50 360 1.0 3.0 0.00 0.00 0.00 95 1011.0
20260510024008 50 360 1.0 2.0 0.00 0.00 0.00 95 1010.9
20260510023510 50 360 1.0 3.0 0.00 0.00 0.00 95 1010.8
20260510023009 50 360 1.0 3.0 0.00 0.00 0.00 95 1010.7
20260510022510 50 360 1.0 2.0 0.00 0.00 0.00 95 1010.6
20260510022009 50 360 1.0 3.0 0.00 0.00 0.00 95 1010.6
20260510021509 51 360 0.0 3.0 0.00 0.00 0.00 95 1010.5
20260510021008 51 138 0.0 4.0 0.00 0.00 0.00 95 1010.5
20260510020513 51 136 1.0 5.0 0.00 0.00 0.00 95 1010.4
20260510020008 52 154 1.0 3.0 0.00 0.00 0.00 95 1010.5
20260510015507 52 154 1.0 3.0 0.00 0.00 0.00 95 1010.6
20260510015007 52 154 1.0 5.0 0.00 0.00 0.00 95 1010.8
20260510014508 52 154 1.0 5.0 0.00 0.00 0.00 95 1010.9
20260510014008 52 189 1.0 5.0 0.00 0.00 0.00 95 1010.8
20260510013506 52 188 1.0 3.0 0.00 0.00 0.00 95 1010.7
20260510013008 51 188 0.0 3.0 0.00 0.00 0.00 95 1010.6
20260510012506 51 188 1.0 4.0 0.00 0.00 0.00 95 1010.6
20260510012007 52 188 2.0 4.0 0.00 0.00 0.00 95 1010.5
20260510011511 52 360 0.0 2.0 0.00 0.00 0.00 94 1010.4
20260510011006 52 360 0.0 2.0 0.00 0.00 0.00 95 1010.5
20260510010505 52 360 0.0 8.0 0.00 0.00 0.00 94 1010.3
20260510010005 53 165 1.0 8.0 0.00 0.00 0.00 94 1010.3
20260510005505 53 160 3.0 5.0 0.00 0.00 0.00 95 1010.4
20260510005104 53 182 1.0 3.0 0.00 0.00 0.00 95 1010.4
20260510004504 53 182 1.0 4.0 0.00 0.00 0.00 95 1010.3
20260510004005 53 188 1.0 4.0 0.00 0.00 0.00 95 1010.3
20260510003504 53 194 1.0 7.0 0.00 0.00 0.00 95 1010.3
20260510003004 53 195 1.0 7.0 0.00 0.00 0.00 95 1010.2
20260510002503 53 202 2.0 4.0 0.00 0.00 0.00 95 1010.1
20260510002003 53 148 1.0 5.0 0.00 0.00 0.00 95 1010.0
20260510001503 53 148 1.0 4.0 0.00 0.00 0.00 95 1009.9
20260510001003 53 146 2.0 4.0 0.00 0.00 0.00 95 1009.7
20260510000503 53 146 1.0 3.0 0.00 0.00 0.00 94 1009.7
20260510000004 53 146 1.0 5.0 0.00 0.00 0.00 95 1009.6
20260509235502 53 153 2.0 5.0 0.00 0.00 0.00 94 1009.6
20260509235003 53 201 2.0 4.0 0.00 0.00 0.00 95 1009.6
20260509234502 53 207 1.0 3.0 0.00 0.00 0.00 95 1009.5
20260509234001 53 207 1.0 6.0 0.00 0.00 0.00 94 1009.4
20260509233502 53 207 2.0 6.0 0.00 0.00 0.00 94 1009.2
20260509233001 53 153 1.0 3.0 0.00 0.00 0.00 94 1009.2
20260509232501 54 360 1.0 7.0 0.00 0.00 0.00 94 1009.1
20260509232101 54 152 1.0 7.0 0.00 0.00 0.00 94 1009.1
20260509231600 54 187 1.0 8.0 0.00 0.00 0.00 95 1009.2
20260509231059 54 190 3.0 8.0 0.00 0.00 0.00 94 1009.3
20260509230559 54 160 3.0 8.0 0.00 0.00 0.00 94 1009.2
20260509230100 54 202 3.0 7.0 0.00 0.00 0.00 94 1009.4
20260509225559 55 132 2.0 7.0 0.00 0.00 0.00 94 1009.3
20260509225200 55 159 3.0 7.0 0.00 0.00 0.00 95 1009.4
20260509224558 55 360 2.0 8.0 0.00 0.00 0.00 95 1009.4
20260509224059 55 167 2.0 6.0 0.00 0.00 0.00 95 1009.4
20260509223556 55 360 1.0 4.0 0.00 0.00 0.00 95 1009.4
20260509223102 55 137 1.0 6.0 0.00 0.00 0.00 95 1009.5
20260509222557 54 185 3.0 6.0 0.00 0.00 0.00 95 1009.6
20260509222055 54 186 2.0 5.0 0.00 0.00 0.00 95 1009.5
20260509221555 54 148 2.0 9.0 0.00 0.00 0.00 95 1009.4
20260509221055 54 124 3.0 9.0 0.00 0.00 0.00 95 1009.6
20260509220555 54 130 1.0 4.0 0.00 0.00 0.00 95 1009.4
20260509220054 54 163 2.0 5.0 0.00 0.00 0.00 95 1009.5
20260509215554 54 177 2.0 5.0 0.00 0.00 0.00 95 1009.5
20260509215054 54 158 1.0 6.0 0.00 0.00 0.00 95 1009.6
20260509214554 54 178 2.0 8.0 0.00 0.00 0.00 95 1009.5
20260509214053 54 360 3.0 9.0 0.00 0.00 0.00 95 1009.6
20260509213553 54 360 3.0 10.0 0.00 0.00 0.00 95 1009.6
20260509213053 55 360 1.0 10.0 0.00 0.00 0.00 95 1009.6
20260509212552 54 182 3.0 8.0 0.00 0.00 0.00 96 1009.6
20260509212051 54 236 4.0 10.0 0.00 0.00 0.00 95 1009.6
20260509211551 54 182 3.0 7.0 0.00 0.00 0.00 95 1009.6
20260509211050 54 207 3.0 6.0 0.00 0.00 0.00 95 1009.5
20260509210552 54 192 1.0 9.0 0.00 0.00 0.00 95 1009.4
20260509210057 54 157 3.0 9.0 0.00 0.00 0.00 95 1009.6
20260509205548 53 161 4.0 7.0 0.00 0.00 0.00 95 1009.6
20260509205051 53 241 4.0 10.0 0.00 0.00 0.00 95 1009.7
20260509204552 53 194 5.0 10.0 0.00 0.00 0.00 95 1009.9
20260509204045 53 171 2.0 7.0 0.00 0.00 0.00 95 1010.0
20260509203544 53 244 4.0 9.0 0.00 0.00 0.00 95 1010.1
20260509203044 53 217 3.0 9.0 0.00 0.00 0.00 95 1010.1
20260509202543 53 214 3.0 9.0 0.00 0.00 0.00 95 1010.1
20260509202042 53 178 4.0 9.0 0.00 0.00 0.00 95 1010.2
20260509201546 53 192 4.0 7.0 0.00 0.00 0.00 95 1010.3
20260509201041 53 196 3.0 8.0 0.00 0.00 0.00 95 1010.3
20260509200541 53 149 3.0 7.0 0.00 0.00 0.00 95 1010.4
20260509200053 53 193 3.0 8.0 0.00 0.00 0.00 95 1010.6
20260509195540 53 177 3.0 8.0 0.00 0.00 0.00 95 1010.7
20260509195038 53 171 4.0 9.0 0.00 0.00 0.00 95 1010.7
20260509194539 53 189 3.0 7.0 0.00 0.00 0.00 95 1010.8
20260509194038 53 171 3.0 8.0 0.00 0.00 0.00 95 1010.9
20260509193535 53 202 1.0 8.0 0.00 0.00 0.00 95 1010.9
20260509193036 53 200 2.0 7.0 0.00 0.00 0.00 95 1011.0
20260509192534 53 170 2.0 7.0 0.00 0.00 0.00 95 1011.0
20260509192034 52 179 3.0 8.0 0.00 0.00 0.00 95 1011.1
20260509191534 52 194 5.0 9.0 0.00 0.00 0.00 95 1011.3
20260509191032 52 175 3.0 7.0 0.00 0.00 0.00 95 1011.3
20260509190532 52 146 3.0 7.0 0.00 0.00 0.00 95 1011.4
20260509190035 52 194 4.0 7.0 0.00 0.00 0.00 95 1011.5
20260509185533 52 169 3.0 7.0 0.00 0.00 0.00 95 1011.5
20260509185033 52 192 2.0 7.0 0.00 0.00 0.00 95 1011.5
20260509184543 52 191 3.0 7.0 0.00 0.00 0.00 95 1011.4
20260509184030 52 179 2.0 5.0 0.00 0.00 0.00 95 1011.5
20260509183531 52 209 1.0 4.0 0.00 0.00 0.00 94 1011.6
20260509183033 52 205 2.0 5.0 0.00 0.00 0.00 95 1011.7
20260509182530 52 191 3.0 5.0 0.00 0.00 0.00 95 1011.5
20260509182029 52 208 2.0 5.0 0.00 0.00 0.00 94 1011.3
20260509181529 52 214 1.0 4.0 0.00 0.00 0.00 94 1011.4
20260509181029 52 214 1.0 5.0 0.00 0.00 0.00 95 1011.2
20260509180529 52 207 2.0 5.0 0.00 0.00 0.00 94 1011.3
20260509180028 52 333 1.0 3.0 0.00 0.00 0.00 94 1011.3
20260509175529 51 333 0.0 3.0 0.00 0.00 0.00 95 1011.3
20260509175028 51 333 1.0 4.0 0.00 0.00 0.00 94 1011.5
20260509174534 51 333 1.0 4.0 0.00 0.00 0.00 94 1011.4
20260509174027 51 335 0.0 2.0 0.00 0.00 0.00 94 1011.3
20260509173529 51 335 0.0 2.0 0.00 0.00 0.00 94 1011.2
20260509173026 51 335 0.0 2.0 0.00 0.00 0.00 94 1011.2
20260509172526 51 335 0.0 2.0 0.00 0.00 0.00 94 1011.1
20260509172026 51 335 0.0 2.0 0.00 0.00 0.00 94 1011.0
20260509171532 51 335 0.0 2.0 0.00 0.00 0.00 94 1011.2
20260509171025 51 335 0.0 2.0 0.00 0.00 0.00 94 1011.1
20260509170524 51 310 0.0 3.0 0.00 0.00 0.00 94 1011.4
20260509170024 50 310 0.0 3.0 0.00 0.00 0.00 94 1011.4
20260509165525 51 310 0.0 3.0 0.00 0.00 0.00 94 1011.5
20260509165021 50 310 1.0 3.0 0.00 0.00 0.00 94 1011.7
20260509164521 50 310 0.0 2.0 0.00 0.00 0.00 94 1011.6
20260509164019 50 310 0.0 2.0 0.00 0.00 0.00 94 1011.7
20260509163522 50 310 0.0 3.0 0.00 0.00 0.00 94 1011.9
20260509163022 50 310 1.0 3.0 0.00 0.00 0.00 94 1012.0
20260509162517 50 311 1.0 3.0 0.00 0.00 0.00 94 1012.1
20260509162016 50 311 0.0 2.0 0.00 0.00 0.00 94 1012.0
20260509161515 50 311 0.0 2.0 0.00 0.00 0.00 94 1012.1
20260509161014 50 311 0.0 2.0 0.00 0.00 0.00 93 1012.2
20260509160513 50 311 1.0 3.0 0.00 0.00 0.00 93 1012.3
20260509160014 50 311 1.0 3.0 0.00 0.00 0.00 93 1012.3
20260509155510 50 311 1.0 2.0 0.00 0.00 0.00 93 1012.3
20260509155009 50 311 0.0 2.0 0.00 0.00 0.00 93 1012.2
20260509154511 49 311 0.0 2.0 0.00 0.00 0.00 93 1012.3
20260509154009 49 311 1.0 2.0 0.00 0.00 0.00 92 1012.2
20260509153507 49 311 0.0 2.0 0.00 0.00 0.00 93 1012.3
20260509153013 49 311 1.0 3.0 0.00 0.00 0.00 93 1012.3
20260509152506 49 311 0.0 3.0 0.00 0.00 0.00 93 1012.2
20260509152008 49 311 2.0 4.0 0.00 0.00 0.00 93 1012.4
20260509151505 49 269 1.0 3.0 0.00 0.00 0.00 93 1012.3
20260509151005 49 269 1.0 2.0 0.00 0.00 0.00 93 1012.4
20260509150504 49 268 0.0 2.0 0.00 0.00 0.00 93 1012.5
20260509150004 49 268 0.0 2.0 0.00 0.00 0.00 93 1012.5
20260509145504 49 360 0.0 2.0 0.00 0.00 0.00 93 1012.5
20260509145006 49 360 0.0 2.0 0.00 0.00 0.00 93 1012.5
20260509144512 49 360 0.0 3.0 0.00 0.00 0.00 94 1012.4
20260509144005 48 360 1.0 3.0 0.00 0.00 0.00 93 1012.4
20260509143502 48 360 0.0 2.0 0.00 0.00 0.00 93 1012.5
20260509143001 48 360 0.0 3.0 0.00 0.00 0.00 94 1012.5
20260509142559 48 360 0.0 3.0 0.00 0.00 0.00 93 1012.5
20260509142102 48 360 0.0 2.0 0.00 0.00 0.00 94 1012.6
20260509141558 47 360 0.0 2.0 0.00 0.00 0.00 94 1012.5